Weather History for Cody, WY

Change the Weather History Date:

Tuesday, May 7, 2013

  Actual Average Record
Temperature  
Mean Temperature 58 °F -  
Max Temperature 71 °F 62 °F 90 °F (1934)
Min Temperature 46 °F 38 °F 24 °F (1945)
Degree Days  
Heating Degree Days 6    
Growing Degree Days 8 (Base 50)    
Moisture  
Dew Point 31 °F    
Average Humidity 35    
Maximum Humidity 58    
Minimum Humidity 18    
Precipitation  
Precipitation 0.00 in - - ()
Sea Level Pressure  
Sea Level Pressure 29.91 in    
Wind  
Wind Speed 6 mph (North)    
Max Wind Speed 16 mph    
Max Gust Speed 22 mph    
Visibility 10 miles    
Events      
Averages and records for this station are not official NWS values.
T = Trace of Precipitation, MM = Missing Value Source: NWS Daily Summary

Daily Weather History Graph

Daily Weather History Graph

Search for Another Location

Airport:

Trip Planner

Search our weather history database for the weather conditions in past years. The results will help you decide how hot, cold, wet, or windy it might be!

Date:

Astronomy

May. 07, 2013 Rise Set
Actual Time 5:57 AM MDT 8:28 PM MDT
Civil Twilight 5:24 AM MDT 9:01 PM MDT
Nautical Twilight 4:44 AM MDT 9:42 PM MDT
Astronomical Twilight 3:57 AM MDT 10:29 PM MDT
Moon 4:39 AM MDT (5/7) 6:27 PM MDT (5/7)
Length of Visible Light 15h 36m
Length of Day
14h 30m
Waning Crescent, 5% of the Moon is Illuminated
May 7
Waning Crescent
May 9
New
May 17
First Quarter
May 24
Full
May 31
Last Quarter

Hourly Weather History & Observations

Time (MDT) Temp. Windchill Dew Point Humidity Pressure Visibility Wind Dir Wind Speed Gust Speed Precip Events Conditions
12:15 AM 53.6 °F - 35.6 °F 51% 29.94 in 10.0 mi Calm Calm - N/A   Clear
12:35 AM 51.8 °F - 35.6 °F 54% 29.93 in 10.0 mi Calm Calm - N/A   Clear
12:55 AM 51.8 °F - 33.8 °F 50% 29.93 in 10.0 mi SW 8.1 mph - N/A   Clear
1:35 AM 51.8 °F - 33.8 °F 50% 29.93 in 10.0 mi SW 8.1 mph - N/A   Clear
1:55 AM 51.8 °F - 33.8 °F 50% 29.92 in 10.0 mi SSW 8.1 mph - N/A   Clear
2:15 AM 50.0 °F - 33.8 °F 54% 29.92 in 10.0 mi SSW 9.2 mph - N/A   Clear
2:35 AM 48.2 °F - 33.8 °F 58% 29.92 in 10.0 mi SW 9.2 mph - N/A   Clear
3:15 AM 48.2 °F - 33.8 °F 58% 29.91 in 10.0 mi SSW 6.9 mph - N/A   Clear
4:15 AM 48.2 °F - 33.8 °F 58% 29.91 in 10.0 mi SW 8.1 mph - N/A   Clear
4:35 AM 48.2 °F - 33.8 °F 58% 29.91 in 10.0 mi SW 6.9 mph - N/A   Clear
4:55 AM 48.2 °F - 33.8 °F 58% 29.91 in 10.0 mi SSW 6.9 mph - N/A   Clear
5:15 AM 48.2 °F - 33.8 °F 58% 29.91 in 10.0 mi WSW 8.1 mph - N/A   Clear
5:35 AM 48.2 °F - 32.0 °F 54% 29.91 in 10.0 mi SW 6.9 mph - N/A   Clear
6:15 AM 46.4 °F 45.2 °F 32.0 °F 57% 29.91 in 10.0 mi SW 3.5 mph - N/A   Clear
6:36 AM 48.2 °F - 32.0 °F 54% 29.91 in 10.0 mi SW 8.1 mph - N/A   Clear
6:55 AM 48.2 °F - 33.8 °F 58% 29.91 in 10.0 mi WSW 4.6 mph - N/A   Clear
7:35 AM 53.6 °F - 33.8 °F 47% 29.91 in 10.0 mi West 6.9 mph - N/A   Clear
7:55 AM 55.4 °F - 33.8 °F 44% 29.91 in 10.0 mi WSW 6.9 mph - N/A   Clear
8:15 AM 57.2 °F - 33.8 °F 41% 29.91 in 10.0 mi SW 5.8 mph - N/A   Clear
8:35 AM 59.0 °F - 33.8 °F 39% 29.91 in 10.0 mi West 4.6 mph - N/A   Clear
8:55 AM 60.8 °F - 33.8 °F 36% 29.91 in 10.0 mi Calm Calm - N/A   Clear
9:15 AM 62.6 °F - 33.8 °F 34% 29.91 in 10.0 mi WNW 3.5 mph - N/A   Clear
9:35 AM 64.4 °F - 33.8 °F 32% 29.91 in 10.0 mi NNE 3.5 mph - N/A   Clear
9:55 AM 66.2 °F - 33.8 °F 30% 29.91 in 10.0 mi Calm Calm - N/A   Clear
10:15 AM 64.4 °F - 32.0 °F 30% 29.90 in 10.0 mi Calm Calm - N/A   Clear
10:55 AM 66.2 °F - 33.8 °F 30% 29.91 in 10.0 mi North 6.9 mph - N/A   Clear
11:15 AM 66.2 °F - 35.6 °F 32% 29.91 in 10.0 mi NNE 6.9 mph - N/A   Clear
11:35 AM 66.2 °F - 32.0 °F 28% 29.91 in 10.0 mi NE 11.5 mph - N/A   Clear
12:15 PM 68.0 °F - 33.8 °F 28% 29.90 in 10.0 mi NE 13.8 mph 18.4 mph N/A   Clear
12:35 PM 68.0 °F - 33.8 °F 28% 29.90 in 10.0 mi NE 10.4 mph 18.4 mph N/A   Clear
12:55 PM 69.8 °F - 33.8 °F 27% 29.90 in 10.0 mi East 9.2 mph 17.3 mph N/A   Clear
1:15 PM 69.8 °F - 33.8 °F 27% 29.90 in 10.0 mi NE 10.4 mph - N/A   Clear
1:55 PM 69.8 °F - 26.6 °F 20% 29.89 in 10.0 mi East 6.9 mph - N/A   Clear
2:15 PM 69.8 °F - 28.4 °F 21% 29.89 in 10.0 mi NE 10.4 mph - N/A   Scattered Clouds
2:35 PM 66.2 °F - 30.2 °F 26% 29.89 in 10.0 mi NNE 8.1 mph - N/A   Mostly Cloudy
2:55 PM 69.8 °F - 28.4 °F 21% 29.88 in 10.0 mi NNE 10.4 mph - N/A   Mostly Cloudy
3:15 PM 69.8 °F - 26.6 °F 20% 29.88 in 10.0 mi ENE 8.1 mph - N/A   Partly Cloudy
3:35 PM 71.6 °F - 28.4 °F 20% 29.88 in 10.0 mi North 16.1 mph 20.7 mph N/A   Partly Cloudy
3:55 PM 71.6 °F - 26.6 °F 19% 29.88 in 10.0 mi East 4.6 mph - N/A   Partly Cloudy
4:15 PM 69.8 °F - 26.6 °F 20% 29.87 in 10.0 mi North 13.8 mph 17.3 mph N/A   Partly Cloudy
4:35 PM 69.8 °F - 26.6 °F 20% 29.88 in 10.0 mi North 12.7 mph - N/A   Clear
5:35 PM 69.8 °F - 28.4 °F 21% 29.88 in 10.0 mi North 13.8 mph 21.9 mph N/A   Clear
6:15 PM 69.8 °F - 24.8 °F 18% 29.88 in 10.0 mi NNE 13.8 mph 17.3 mph N/A   Clear
6:35 PM 69.8 °F - 24.8 °F 18% 29.89 in 10.0 mi NNE 9.2 mph 17.3 mph N/A   Clear
6:55 PM 69.8 °F - 24.8 °F 18% 29.88 in 10.0 mi North 10.4 mph - N/A   Clear
7:15 PM 68.0 °F - 24.8 °F 20% 29.89 in 10.0 mi NNE 12.7 mph - N/A   Clear
7:35 PM 68.0 °F - 26.6 °F 21% 29.90 in 10.0 mi NNE 15.0 mph - N/A   Mostly Cloudy
7:55 PM 66.2 °F - 26.6 °F 23% 29.90 in 10.0 mi NNE 9.2 mph 19.6 mph N/A   Mostly Cloudy
8:15 PM 64.4 °F - 26.6 °F 24% 29.91 in 10.0 mi North 8.1 mph - N/A   Clear
8:35 PM 62.6 °F - 28.4 °F 27% 29.92 in 10.0 mi North 8.1 mph - N/A   Clear
9:15 PM 60.8 °F - 28.4 °F 29% 29.94 in 10.0 mi Calm Calm - N/A   Partly Cloudy
9:35 PM 60.8 °F - 28.4 °F 29% 29.95 in 10.0 mi NE 3.5 mph - N/A   Clear
9:55 PM 60.8 °F - 26.6 °F 27% 29.96 in 10.0 mi NE 4.6 mph - N/A   Mostly Cloudy
10:15 PM 59.0 °F - 28.4 °F 31% 29.97 in 10.0 mi Calm Calm - N/A   Overcast
10:35 PM 59.0 °F - 30.2 °F 34% 29.97 in 10.0 mi Calm Calm - N/A   Overcast
10:55 PM 57.2 °F - 32.0 °F 38% 29.98 in 10.0 mi North 6.9 mph - N/A   Mostly Cloudy
11:15 PM 59.0 °F - 32.0 °F 36% 29.98 in 10.0 mi North 8.1 mph - N/A   Overcast
11:35 PM 59.0 °F - 30.2 °F 34% 29.98 in 10.0 mi NE 5.8 mph - N/A   Overcast